DW9527 Weather Reports


Display with metric or nautical units.
time (UTC)temp
F
wind
direction
speed
MPH
gust
MPH
rain 1hr
in
rain 24hr
in
rain mn
in
humidity
%
barometer
mb
20260507114705 42 294 0.0 0.0 0.00 0.00 0.00 88 1018.4
20260507114204 42 294 0.0 0.0 0.00 0.00 0.00 88 1018.3
20260507112704 41 294 0.0 0.0 0.00 0.01 0.00 87 1018.3
20260507111704 42 294 0.0 0.0 0.00 0.01 0.00 87 1018.3
20260507111205 42 294 0.0 0.0 0.00 0.01 0.00 87 1018.3
20260507110705 42 294 0.0 0.0 0.00 0.01 0.00 87 1018.3
20260507110205 42 294 0.0 0.0 0.00 0.01 0.00 87 1018.3
20260507105204 43 294 0.0 0.0 0.00 0.01 0.00 87 1018.3
20260507104705 43 294 0.0 1.0 0.00 0.01 0.00 87 1018.3
20260507104205 43 294 0.0 1.0 0.00 0.01 0.00 87 1018.3
20260507103705 43 294 0.0 2.0 0.00 0.01 0.00 87 1018.3
20260507103205 43 294 0.0 2.0 0.00 0.01 0.00 85 1018.5
20260507102705 43 294 1.0 2.0 0.00 0.01 0.00 85 1018.6
20260507101204 43 294 0.0 3.0 0.00 0.01 0.00 85 1018.6
20260507100706 43 294 1.0 2.0 0.00 0.01 0.00 85 1018.6
20260507100205 43 295 0.0 0.0 0.00 0.01 0.00 84 1018.6
20260507095705 44 295 0.0 2.0 0.00 0.01 0.00 84 1018.7
20260507095204 44 295 0.0 2.0 0.00 0.01 0.00 84 1018.7
20260507094704 44 295 1.0 2.0 0.00 0.01 0.00 84 1018.7
20260507094205 44 295 1.0 3.0 0.00 0.01 0.00 84 1018.7
20260507093705 44 295 1.0 3.0 0.00 0.01 0.00 83 1018.9
20260507093205 44 295 2.0 3.0 0.00 0.01 0.00 83 1018.9
20260507092204 45 295 2.0 6.0 0.00 0.01 0.00 82 1018.8
20260507091705 45 295 2.0 3.0 0.00 0.01 0.00 82 1018.8
20260507091205 45 295 3.0 6.0 0.00 0.01 0.00 82 1018.8
20260507090705 46 294 2.0 6.0 0.00 0.01 0.00 82 1018.9
20260507090205 46 294 2.0 6.0 0.00 0.01 0.00 82 1018.9
20260507085705 46 293 3.0 6.0 0.00 0.01 0.00 81 1018.9
20260507085204 46 294 2.0 6.0 0.00 0.01 0.00 82 1019.0
20260507084205 47 296 3.0 7.0 0.00 0.01 0.00 81 1018.9
20260507083705 47 355 2.0 6.0 0.00 0.01 0.00 81 1018.9
20260507083205 47 355 2.0 6.0 0.00 0.01 0.00 81 1018.9
20260507082205 48 355 2.0 6.0 0.00 0.02 0.00 81 1019.0
20260507081705 49 355 1.0 2.0 0.00 0.02 0.00 81 1019.1
20260507081205 49 355 1.0 7.0 0.00 0.02 0.00 82 1019.2
20260507080705 49 355 1.0 7.0 0.00 0.04 0.00 82 1019.1
20260507080205 49 355 3.0 7.0 0.00 0.04 0.00 82 1019.2
20260507075705 49 7 3.0 6.0 0.00 0.04 0.00 82 1019.3
20260507074205 49 15 1.0 2.0 0.00 0.05 0.00 82 1019.3
20260507073705 49 16 0.0 2.0 0.00 0.05 0.00 82 1019.3
20260507072727 49 16 1.0 1.0 0.00 0.05 0.00 81 1019.4
20260507072204 49 16 0.0 1.0 0.00 0.05 0.00 80 1019.4
20260507065705 49 16 1.0 2.0 0.00 0.07 0.00 77 1019.6
20260507065204 49 16 1.0 2.0 0.00 0.08 0.00 77 1019.7
20260507064704 49 16 0.0 3.0 0.00 0.08 0.00 77 1019.6
20260507064205 49 16 0.0 3.0 0.00 0.08 0.00 77 1019.7
20260507063704 49 16 1.0 3.0 0.00 0.10 0.00 77 1019.9
20260507063204 49 16 1.0 2.0 0.00 0.10 0.00 77 1019.9
20260507062705 49 16 1.0 1.0 0.00 0.11 0.00 76 1019.7
20260507062204 49 16 0.0 1.0 0.00 0.11 0.00 77 1019.7
20260507060704 50 16 1.0 2.0 0.00 0.12 0.00 75 1019.6
20260507060204 50 17 1.0 2.0 0.00 0.13 0.00 75 1019.6
20260507055704 50 17 0.0 1.0 0.00 0.13 0.00 75 1019.6
20260507055205 50 17 0.0 1.0 0.00 0.13 0.00 73 1019.6
20260507054705 50 17 0.0 0.0 0.00 0.13 0.00 73 1019.8
20260507054205 50 17 0.0 1.0 0.00 0.13 0.00 73 1019.8
20260507053704 50 17 0.0 1.0 0.00 0.13 0.00 72 1019.8
20260507053204 50 17 0.0 2.0 0.00 0.13 0.00 72 1019.8
20260507052704 50 17 1.0 2.0 0.00 0.13 0.00 72 1019.7
20260507052204 50 17 0.0 2.0 0.00 0.13 0.00 73 1019.8
20260507051704 50 17 0.0 1.0 0.00 0.13 0.00 73 1019.8
20260507051204 50 17 0.0 1.0 0.00 0.13 0.00 72 1019.7
20260507050705 50 17 0.0 1.0 0.00 0.13 0.00 71 1019.7
20260507050205 50 17 0.0 1.0 0.00 0.13 0.00 71 1019.8
20260507045704 50 17 0.0 2.0 0.00 0.13 0.13 71 1019.8
20260507045204 50 17 1.0 2.0 0.00 0.13 0.13 71 1019.7
20260507044704 50 17 0.0 2.0 0.00 0.13 0.13 72 1019.7
20260507043705 50 17 1.0 2.0 0.00 0.13 0.13 71 1019.8
20260507043206 50 17 0.0 0.0 0.00 0.13 0.13 71 1019.7
20260507042205 50 17 0.0 0.0 0.00 0.13 0.13 68 1019.6
20260507041708 50 17 0.0 0.0 0.00 0.13 0.13 68 1019.6
20260507041205 50 17 0.0 0.0 0.00 0.13 0.13 68 1019.5
20260507040705 51 17 0.0 0.0 0.00 0.13 0.13 68 1019.5
20260507035704 51 17 0.0 0.0 0.00 0.13 0.13 69 1019.6
20260507035205 51 17 0.0 0.0 0.00 0.13 0.13 69 1019.5
20260507034706 51 17 0.0 0.0 0.00 0.13 0.13 69 1019.5
20260507034204 51 17 0.0 0.0 0.00 0.13 0.13 70 1019.6
20260507033705 52 17 0.0 0.0 0.00 0.13 0.13 71 1019.7
20260507033205 52 17 0.0 0.0 0.00 0.13 0.13 70 1019.8
20260507032705 52 17 0.0 0.0 0.00 0.13 0.13 71 1019.7
20260507032205 52 17 0.0 0.0 0.00 0.13 0.13 70 1019.7
20260507031705 52 17 0.0 0.0 0.00 0.13 0.13 70 1019.6
20260507031205 52 17 0.0 0.0 0.00 0.13 0.13 69 1019.5
20260507030705 52 17 0.0 0.0 0.00 0.13 0.13 66 1019.4
20260507030204 53 17 0.0 0.0 0.00 0.13 0.13 68 1019.3
20260507025705 53 17 0.0 0.0 0.00 0.13 0.13 69 1019.5
20260507025205 53 17 0.0 0.0 0.00 0.13 0.13 68 1019.5
20260507023704 53 17 0.0 2.0 0.00 0.13 0.13 64 1019.2
20260507023213 53 17 1.0 3.0 0.00 0.13 0.13 64 1019.1
20260507022705 53 17 1.0 3.0 0.00 0.13 0.13 64 1019.2
20260507021705 53 17 0.0 2.0 0.00 0.13 0.13 64 1019.1
20260507020204 53 17 0.0 3.0 0.00 0.13 0.13 63 1019.0
20260507015214 54 19 0.0 0.0 0.00 0.13 0.13 65 1018.9
20260507014704 54 19 0.0 0.0 0.00 0.13 0.13 64 1018.8
20260507014205 54 19 0.0 0.0 0.00 0.13 0.13 61 1018.8
20260507013704 54 19 0.0 0.0 0.00 0.13 0.13 62 1018.7
20260507013205 55 19 0.0 1.0 0.00 0.13 0.13 62 1018.5
20260507012227 55 19 0.0 1.0 0.00 0.13 0.13 61 1018.4
20260507011704 55 19 0.0 1.0 0.00 0.13 0.13 60 1018.4
20260507010704 55 19 0.0 6.0 0.00 0.13 0.13 55 1018.3
20260507005704 56 18 1.0 6.0 0.00 0.13 0.13 53 1018.2
20260507005205 56 17 1.0 3.0 0.00 0.13 0.13 53 1018.3
20260507004704 56 17 1.0 2.0 0.00 0.13 0.13 53 1018.3
20260507004204 56 17 1.0 3.0 0.00 0.13 0.13 53 1018.3
20260507003704 56 17 1.0 6.0 0.00 0.13 0.13 53 1018.3
20260507003204 56 17 2.0 6.0 0.00 0.13 0.13 52 1018.3
20260507002705 56 26 1.0 6.0 0.00 0.13 0.13 51 1018.2
20260507002204 57 23 2.0 7.0 0.00 0.13 0.13 50 1018.2
20260507001704 57 30 3.0 8.0 0.00 0.13 0.13 50 1018.2
20260507001205 57 37 5.0 8.0 0.00 0.13 0.13 49 1018.3
20260507000712 57 25 5.0 8.0 0.00 0.13 0.13 49 1018.2
20260507000205 57 41 5.0 9.0 0.00 0.13 0.13 49 1018.3
20260506235704 57 35 5.0 9.0 0.00 0.13 0.13 49 1018.2
20260506235205 57 34 5.0 12.0 0.00 0.13 0.13 48 1018.2
20260506234705 58 16 6.0 12.0 0.00 0.13 0.13 48 1018.3
20260506233704 58 15 5.0 14.0 0.00 0.13 0.13 48 1018.2
20260506233204 58 3 6.0 14.0 0.00 0.13 0.13 48 1018.1
20260506232204 58 345 6.0 14.0 0.00 0.13 0.13 46 1018.0
20260506231705 59 356 6.0 14.0 0.00 0.13 0.13 46 1018.0
20260506231205 59 25 5.0 14.0 0.00 0.13 0.13 46 1017.9
20260506230704 59 20 5.0 14.0 0.00 0.13 0.13 46 1017.9
20260506230204 59 44 5.0 15.0 0.00 0.13 0.13 44 1018.0
20260506225704 59 20 7.0 15.0 0.00 0.13 0.13 45 1017.9
20260506225205 59 21 6.0 14.0 0.00 0.13 0.13 45 1017.9
20260506224204 59 36 5.0 9.0 0.00 0.13 0.13 45 1017.9
20260506223705 59 39 3.0 9.0 0.00 0.13 0.13 45 1017.9
20260506223204 59 351 5.0 9.0 0.00 0.13 0.13 46 1017.8
20260506222705 59 21 3.0 12.0 0.00 0.13 0.13 46 1017.8
20260506222212 59 36 5.0 12.0 0.00 0.13 0.13 45 1017.8
20260506221706 60 55 3.0 12.0 0.00 0.13 0.13 46 1017.8
20260506220704 59 347 6.0 12.0 0.00 0.13 0.13 48 1017.7
20260506220204 59 355 5.0 12.0 0.00 0.13 0.13 47 1017.9
20260506215705 59 14 5.0 12.0 0.00 0.13 0.13 44 1017.8
20260506214705 60 55 5.0 12.0 0.00 0.13 0.13 43 1017.9
20260506214204 61 55 6.0 10.0 0.00 0.13 0.13 42 1017.9
20260506213705 61 46 3.0 10.0 0.00 0.13 0.13 45 1017.9
20260506213204 60 76 3.0 10.0 0.00 0.13 0.13 45 1017.9
20260506212704 58 68 5.0 16.0 0.00 0.13 0.13 45 1018.2
20260506212204 59 68 4.0 16.0 0.00 0.13 0.13 43 1018.1
20260506211704 59 50 3.0 16.0 0.00 0.13 0.13 48 1018.2
20260506210704 60 51 6.0 15.0 0.00 0.13 0.13 43 1018.3
20260506205708 60 101 3.0 14.0 0.00 0.13 0.13 45 1018.2
20260506205204 60 46 6.0 14.0 0.00 0.13 0.13 44 1018.3
20260506204704 60 96 6.0 14.0 0.00 0.13 0.13 44 1018.4
20260506204204 61 46 3.0 9.0 0.00 0.13 0.13 46 1018.5
20260506203705 61 3 5.0 9.0 0.00 0.13 0.13 48 1018.6
20260506203204 60 72 5.0 15.0 0.00 0.13 0.13 47 1018.7
20260506202205 59 34 8.0 18.0 0.00 0.13 0.13 44 1018.9
20260506201705 59 63 6.0 14.0 0.00 0.13 0.13 47 1018.9
20260506201205 58 52 6.0 14.0 0.00 0.13 0.13 44 1019.1
20260506200204 60 6 6.0 15.0 0.00 0.13 0.13 46 1019.2
20260506195704 59 64 3.0 15.0 0.00 0.13 0.13 45 1019.2
20260506195205 59 114 5.0 15.0 0.00 0.13 0.13 47 1019.3
20260506194705 59 24 6.0 15.0 0.00 0.13 0.13 44 1019.3
20260506194205 59 34 9.0 16.0 0.00 0.13 0.13 45 1019.4
20260506192704 59 17 7.0 14.0 0.00 0.13 0.13 46 1019.5
20260506191705 58 64 6.0 14.0 0.00 0.13 0.13 45 1019.5
20260506191205 58 44 7.0 17.0 0.00 0.13 0.13 45 1019.5
20260506190205 58 45 7.0 16.0 0.00 0.13 0.13 47 1019.4
20260506185705 60 49 7.0 16.0 0.00 0.13 0.13 46 1019.3
20260506184705 59 38 6.0 16.0 0.00 0.13 0.13 49 1019.3
20260506184204 58 36 7.0 16.0 0.00 0.13 0.13 47 1019.4
20260506183705 58 60 4.0 22.0 0.00 0.13 0.13 48 1019.4
20260506183205 58 54 10.0 22.0 0.00 0.13 0.13 48 1019.4
20260506182704 57 39 9.0 18.0 0.00 0.13 0.13 48 1019.3
20260506182204 57 29 8.0 17.0 0.00 0.13 0.13 52 1019.4
20260506181704 57 7 8.0 18.0 0.00 0.13 0.13 50 1019.5
20260506181205 57 102 9.0 18.0 0.00 0.13 0.13 46 1019.6
20260506175705 57 81 5.0 17.0 0.00 0.13 0.13 51 1020.0
20260506175204 55 64 9.0 15.0 0.00 0.13 0.13 51 1020.1
20260506174704 56 38 6.0 16.0 0.00 0.13 0.13 59 1020.2
20260506174205 55 66 6.0 16.0 0.00 0.13 0.13 55 1020.1
20260506173705 56 6 7.0 15.0 0.00 0.13 0.13 55 1020.2
20260506173205 56 353 6.0 14.0 0.00 0.13 0.13 58 1020.2
20260506172704 55 69 7.0 15.0 0.00 0.13 0.13 58 1020.2
20260506172204 55 34 7.0 17.0 0.00 0.13 0.13 60 1020.2
20260506171704 55 4 7.0 17.0 0.00 0.13 0.13 62 1020.3
20260506171205 55 20 5.0 17.0 0.00 0.13 0.13 63 1020.3
20260506170704 55 38 7.0 17.0 0.00 0.13 0.13 63 1020.3
20260506170205 55 65 7.0 18.0 0.00 0.13 0.13 62 1020.3
20260506165704 55 68 7.0 18.0 0.00 0.13 0.13 61 1020.2
20260506165204 54 26 6.0 15.0 0.00 0.13 0.13 68 1020.1
20260506164204 54 353 7.0 15.0 0.00 0.13 0.13 69 1020.1
20260506163705 54 2 6.0 15.0 0.00 0.13 0.13 68 1020.3
20260506163204 53 21 5.0 15.0 0.00 0.13 0.13 70 1020.2
20260506162705 53 46 6.0 16.0 0.00 0.13 0.13 71 1020.1
20260506162204 52 41 7.0 16.0 0.00 0.13 0.13 69 1020.0
20260506161705 52 32 6.0 14.0 0.00 0.13 0.13 72 1019.5
20260506161204 52 14 7.0 14.0 0.00 0.13 0.13 76 1019.6
20260506160705 51 37 6.0 15.0 0.00 0.13 0.13 78 1019.9
20260506160204 50 22 8.0 15.0 0.00 0.13 0.13 77 1020.0
20260506155704 50 8 7.0 15.0 0.00 0.13 0.13 77 1020.1
20260506155205 50 25 8.0 15.0 0.00 0.13 0.13 77 1020.0
20260506154705 49 22 5.0 15.0 0.00 0.13 0.13 78 1020.2
20260506153705 49 16 7.0 15.0 0.00 0.13 0.13 78 1020.1
20260506153204 48 28 4.0 10.0 0.00 0.13 0.13 78 1020.1
20260506152705 48 28 6.0 10.0 0.00 0.13 0.13 80 1020.2
20260506152205 48 352 4.0 10.0 0.00 0.13 0.13 82 1020.1
20260506151704 48 24 5.0 10.0 0.00 0.13 0.13 82 1020.0
20260506151205 48 26 3.0 9.0 0.00 0.13 0.13 84 1019.8
20260506150704 47 34 5.0 9.0 0.00 0.13 0.13 84 1019.8
20260506150204 47 2 5.0 9.0 0.00 0.13 0.13 85 1020.0
20260506145705 47 21 3.0 9.0 0.00 0.13 0.13 87 1019.9
20260506145204 47 346 2.0 9.0 0.00 0.13 0.13 87 1020.0
20260506144704 47 343 5.0 9.0 0.00 0.13 0.13 87 1020.0
20260506144204 47 24 2.0 8.0 0.00 0.13 0.13 88 1020.0
20260506143704 47 356 3.0 8.0 0.00 0.13 0.13 88 1019.9
20260506143204 46 350 4.0 8.0 0.00 0.13 0.13 88 1019.7
20260506142704 46 13 4.0 9.0 0.00 0.13 0.13 88 1019.7
20260506141705 46 16 4.0 9.0 0.00 0.13 0.13 89 1019.2
20260506141204 46 32 4.0 9.0 0.00 0.13 0.13 89 1019.6
20260506140704 46 4 3.0 9.0 0.00 0.13 0.13 89 1020.0
20260506140204 46 6 4.0 7.0 0.00 0.13 0.13 90 1019.9
20260506135204 46 40 2.0 6.0 0.00 0.13 0.13 90 1019.7
20260506134704 46 43 1.0 3.0 0.00 0.13 0.13 90 1019.7
20260506134204 45 43 2.0 6.0 0.00 0.13 0.13 90 1019.6
20260506133205 45 48 1.0 2.0 0.00 0.13 0.13 90 1019.1
20260506132704 45 48 1.0 2.0 0.00 0.13 0.13 90 1019.2
20260506132204 45 48 1.0 6.0 0.00 0.13 0.13 90 1019.4
20260506131704 45 48 2.0 6.0 0.00 0.13 0.13 90 1019.2
20260506131204 44 49 0.0 2.0 0.00 0.13 0.13 90 1019.5
20260506130704 44 49 0.0 2.0 0.00 0.13 0.13 90 1019.5
20260506130204 44 49 0.0 2.0 0.00 0.13 0.13 90 1019.4
20260506125704 44 49 0.0 2.0 0.00 0.13 0.13 90 1019.2
20260506125204 44 49 1.0 3.0 0.00 0.13 0.13 91 1019.3
20260506124704 44 49 0.0 3.0 0.00 0.13 0.13 90 1019.0
20260506124204 44 47 1.0 6.0 0.00 0.13 0.13 90 1018.6
20260506123204 44 36 2.0 6.0 0.01 0.13 0.13 90 1018.2
20260506122704 44 31 1.0 2.0 0.01 0.13 0.13 90 1018.5
20260506122204 44 31 1.0 3.0 0.01 0.13 0.13 90 1018.7
20260506121704 44 31 2.0 3.0 0.01 0.13 0.13 90 1018.4
20260506121204 44 31 2.0 7.0 0.01 0.13 0.13 90 1018.6
20260506120704 43 32 1.0 7.0 0.01 0.13 0.13 90 1018.6
20260506115704 43 30 2.0 6.0 0.01 0.13 0.13 90 1018.3
20260506115204 43 30 2.0 6.0 0.01 0.13 0.13 90 1018.2